New Roads False River Regiona, LA

5:03 PM CDT on September 21, 2019 (GMT -0500)
False River

Weather History for KHZR - July, 2019

Change the Weather History Date:

Tuesday, July 23, 2019

  Actual Average (WUND) Record (WUND)
Temperature  
Mean Temperature 76 °F -  
Max Temperature 80 °F - - (-1)
Min Temperature 71 °F - - (-1)
Cooling Degree Days 10    
Growing Degree Days 26 (Base 50)    
Moisture  
Dew Point 72 °F    
Average Humidity 88    
Maximum Humidity 100    
Minimum Humidity 65    
Precipitation  
Precipitation 0.15 in - - ()
Sea Level Pressure  
Sea Level Pressure 29.96 in    
Wind  
Wind Speed 3 mph (North)    
Max Wind Speed 15 mph    
Max Gust Speed 23 mph    
Visibility 9 miles    
Events Rain , Thunderstorm    
Averages and records for this station are not official NWS values.
T = Trace of Precipitation, MM = Missing Value Source: NWS Daily Summary

Daily Weather History Graph

Daily Weather History Graph

Search for Another Location

Airport or City:

Astronomy

Jul. 23, 2019 Rise Set
Actual Time 6:18 AM CDT 8:06 PM CDT
Civil Twilight 5:51 AM CDT 8:33 PM CDT
Nautical Twilight 5:19 AM CDT 9:05 PM CDT
Astronomical Twilight 4:44 AM CDT 9:39 PM CDT
Moon No Moon Rise 12:08 PM CDT (7/23)
Length of Visible Light 14h 41m
Length of Day
13h 48m
Waning Gibbous, 63% of the Moon is Illuminated
Jul 23
Waning Gibbous
Jul 24
Last Quarter
Jul 31
New
Aug 7
First Quarter
Aug 15
Full

Hourly Weather History & Observations

Time (CDT) Temp. Heat Index Dew Point Humidity Pressure Visibility Wind Dir Wind Speed Gust Speed Precip Events Conditions
12:15 AM 75.2 °F - 75.2 °F 100% 29.96 in 10.0 mi Calm Calm - N/A   Clear
12:37 AM 75.2 °F - 75.2 °F 100% 29.96 in 10.0 mi Calm Calm - N/A   Clear
12:56 AM 75.2 °F - 75.2 °F 100% 29.96 in 10.0 mi Calm Calm - N/A   Clear
1:17 AM 75.2 °F - 75.2 °F 100% 29.96 in 10.0 mi South 3.5 mph - N/A   Scattered Clouds
1:57 AM 75.2 °F - 75.2 °F 100% 29.95 in 7.0 mi South 3.5 mph - N/A   Clear
2:17 AM 75.2 °F - 75.2 °F 100% 29.95 in 7.0 mi Calm Calm - N/A   Clear
2:55 AM 75.2 °F - 75.2 °F 100% 29.94 in 7.0 mi Calm Calm - N/A   Mostly Cloudy
3:15 AM 75.2 °F - 75.2 °F 100% 29.95 in 5.0 mi West 3.5 mph - N/A   Mostly Cloudy
3:35 AM 75.2 °F - 75.2 °F 100% 29.94 in 7.0 mi Calm Calm - N/A   Overcast
3:55 AM 75.2 °F - 75.2 °F 100% 29.94 in 5.0 mi Calm Calm - N/A   Overcast
4:15 AM 75.2 °F - 75.2 °F 100% 29.93 in 5.0 mi SW 3.5 mph - N/A   Overcast
4:35 AM 75.2 °F - 75.2 °F 100% 29.93 in 5.0 mi Calm Calm - N/A   Overcast
4:55 AM 75.2 °F - 75.2 °F 100% 29.93 in 5.0 mi SSW 4.6 mph - N/A   Overcast
5:16 AM 75.2 °F - 75.2 °F 100% 29.93 in 5.0 mi SW 3.5 mph - N/A   Overcast
5:35 AM 75.2 °F - 75.2 °F 100% 29.94 in 4.0 mi Calm Calm - N/A   Overcast
5:56 AM 75.2 °F - 75.2 °F 100% 29.94 in 5.0 mi West 3.5 mph - N/A   Overcast
6:16 AM 75.2 °F - 75.2 °F 100% 29.95 in 5.0 mi Calm Calm - N/A   Overcast
6:35 AM 75.2 °F - 75.2 °F 100% 29.96 in 4.0 mi Calm Calm - N/A   Overcast
6:55 AM 75.2 °F - 75.2 °F 100% 29.96 in 4.0 mi Calm Calm - N/A   Overcast
7:17 AM 75.2 °F - 75.2 °F 100% 29.96 in 5.0 mi Calm Calm - N/A   Overcast
7:35 AM 75.2 °F - 75.2 °F 100% 29.95 in 5.0 mi Calm Calm - N/A   Overcast
7:56 AM 77.0 °F - 75.2 °F 94% 29.95 in 7.0 mi Calm Calm - N/A   Overcast
8:15 AM 77.0 °F - 75.2 °F 94% 29.96 in 10.0 mi NNE 3.5 mph - N/A   Overcast
8:35 AM 78.8 °F - 75.2 °F 89% 29.96 in 10.0 mi Calm Calm - N/A   Overcast
8:56 AM 77.0 °F - 75.2 °F 94% 29.97 in 10.0 mi NNE 3.5 mph - N/A   Overcast
9:15 AM 77.0 °F - 75.2 °F 94% 29.97 in 10.0 mi NNE 3.5 mph - N/A   Overcast
9:35 AM 77.0 °F - 75.2 °F 94% 29.98 in 10.0 mi NNE 3.5 mph - N/A Rain Light Rain
9:55 AM 75.2 °F - 75.2 °F 100% 29.98 in 10.0 mi North 6.9 mph - 0.01 in Rain , Thunderstorm Light Thunderstorms and Rain
10:16 AM 75.2 °F - 75.2 °F 100% 29.99 in 4.0 mi Calm Calm - 0.05 in Rain Rain
10:35 AM 75.2 °F - 75.2 °F 100% 29.98 in 7.0 mi Calm Calm - 0.08 in Rain Light Rain
10:55 AM 75.2 °F - 75.2 °F 100% 29.98 in 10.0 mi Calm Calm - 0.09 in   Scattered Clouds
11:15 AM 77.0 °F - 75.2 °F 94% 29.97 in 10.0 mi Calm Calm - N/A Thunderstorm Thunderstorm
11:35 AM 78.8 °F - 75.2 °F 89% 29.98 in 10.0 mi Calm Calm - N/A   Overcast
11:55 AM 78.8 °F - 75.2 °F 89% 29.97 in 10.0 mi Calm Calm - N/A   Overcast
12:16 PM 78.8 °F - 73.4 °F 83% 29.97 in 10.0 mi WNW 4.6 mph - N/A   Overcast
12:36 PM 80.6 °F 85.4 °F 73.4 °F 79% 29.97 in 10.0 mi WNW 5.8 mph - N/A Thunderstorm Overcast
12:56 PM 80.6 °F 85.4 °F 73.4 °F 79% 29.97 in 10.0 mi WNW 4.6 mph - N/A   Overcast
1:15 PM 78.8 °F - 73.4 °F 83% 29.96 in 10.0 mi West 6.9 mph - N/A Thunderstorm Overcast
1:36 PM 77.0 °F - 73.4 °F 89% 29.96 in 10.0 mi NNW 9.2 mph 16.1 mph N/A Rain Rain
1:55 PM 75.2 °F - 75.2 °F 100% 29.96 in 10.0 mi North 8.1 mph - 0.03 in Rain Rain
2:15 PM 77.0 °F - 75.2 °F 94% 29.95 in 10.0 mi North 9.2 mph - 0.02 in Rain Light Rain
2:37 PM 78.8 °F - 75.2 °F 89% 29.94 in 10.0 mi North 10.4 mph 20.7 mph 0.02 in   Overcast
2:55 PM 78.8 °F - 73.4 °F 83% 29.94 in 10.0 mi North 12.7 mph 19.6 mph 0.02 in   Overcast
3:15 PM 75.2 °F - 73.4 °F 94% 29.94 in 10.0 mi North 10.4 mph 18.4 mph N/A   Overcast
3:35 PM 77.0 °F - 73.4 °F 89% 29.94 in 10.0 mi North 15.0 mph 20.7 mph N/A   Overcast
3:55 PM 77.0 °F - 73.4 °F 89% 29.94 in 10.0 mi North 11.5 mph - N/A   Overcast
4:15 PM 77.0 °F - 73.4 °F 89% 29.94 in 10.0 mi North 6.9 mph - N/A   Overcast
4:35 PM 77.0 °F - 71.6 °F 83% 29.94 in 10.0 mi North 10.4 mph 23.0 mph N/A   Overcast
4:55 PM 77.0 °F - 71.6 °F 83% 29.94 in 10.0 mi North 12.7 mph 18.4 mph N/A   Overcast
5:16 PM 77.0 °F - 71.6 °F 83% 29.94 in 10.0 mi North 8.1 mph - N/A   Overcast
5:35 PM 80.6 °F 84.6 °F 71.6 °F 74% 29.94 in 10.0 mi NNE 6.9 mph - N/A   Overcast
6:15 PM 80.6 °F 83.9 °F 69.8 °F 70% 29.94 in 10.0 mi North 8.1 mph 17.3 mph N/A   Overcast
6:35 PM 80.6 °F 84.6 °F 71.6 °F 74% 29.95 in 10.0 mi NNE 8.1 mph - N/A   Overcast
6:58 PM 80.6 °F 83.9 °F 69.8 °F 70% 29.96 in 10.0 mi North 10.4 mph - N/A   Overcast
7:15 PM 80.6 °F 83.9 °F 69.8 °F 70% 29.96 in 10.0 mi North 9.2 mph - N/A   Overcast
7:35 PM 78.8 °F - 66.2 °F 65% 29.97 in 10.0 mi North 6.9 mph - N/A   Overcast
7:57 PM 78.8 °F - 66.2 °F 65% 29.98 in 10.0 mi North 8.1 mph - N/A   Overcast
8:17 PM 77.0 °F - 66.2 °F 69% 29.98 in 10.0 mi North 5.8 mph - N/A   Mostly Cloudy
8:55 PM 75.2 °F - 66.2 °F 73% 29.99 in 10.0 mi North 6.9 mph - N/A   Overcast
9:15 PM 75.2 °F - 66.2 °F 73% 30.00 in 10.0 mi North 8.1 mph - N/A   Overcast
9:35 PM 75.2 °F - 64.4 °F 69% 30.00 in 10.0 mi North 9.2 mph - N/A   Overcast
9:55 PM 75.2 °F - 64.4 °F 69% 30.01 in 10.0 mi North 10.4 mph - N/A   Overcast
10:15 PM 73.4 °F - 64.4 °F 73% 30.02 in 10.0 mi North 11.5 mph - N/A   Overcast
10:35 PM 73.4 °F - 64.4 °F 73% 30.02 in 10.0 mi North 8.1 mph - N/A   Scattered Clouds
10:55 PM 73.4 °F - 62.6 °F 69% 30.02 in 10.0 mi North 9.2 mph 16.1 mph N/A   Clear
11:15 PM 71.6 °F - 62.6 °F 73% 30.02 in 10.0 mi North 8.1 mph - N/A   Clear
11:36 PM 71.6 °F - 62.6 °F 73% 30.02 in 10.0 mi North 11.5 mph - N/A   Clear
11:58 PM 71.6 °F - 62.6 °F 73% 30.02 in 10.0 mi North 10.4 mph 17.3 mph N/A   Clear